TimeCDT,TemperatureF,Dew PointF,Humidity,Sea Level PressureIn,VisibilityMPH,Wind Direction,Wind SpeedMPH,Gust SpeedMPH,PrecipitationIn,Events,Conditions,WindDirDegrees,DateUTC
12:53 AM,62.1,53.1,72,29.85,10.0,ESE,10.4,-,N/A,,Overcast,110,2013-05-18 05:53:00
1:53 AM,61.0,53.1,75,29.85,10.0,ESE,12.7,-,N/A,,Overcast,110,2013-05-18 06:53:00
2:53 AM,61.0,53.1,75,29.85,10.0,SE,11.5,-,N/A,,Overcast,130,2013-05-18 07:53:00
3:34 AM,60.8,53.6,77,29.84,10.0,SE,8.1,-,0.00,Rain,Light Rain,140,2013-05-18 08:34:00
3:53 AM,60.1,55.9,86,29.85,5.0,South,10.4,-,0.02,Rain,Rain,170,2013-05-18 08:53:00
4:12 AM,60.8,57.2,88,29.85,2.0,SSE,13.8,-,0.19,Rain,Heavy Rain,160,2013-05-18 09:12:00
4:27 AM,59.0,57.2,94,29.84,3.0,East,4.6,-,0.28,Rain,Rain,100,2013-05-18 09:27:00
4:39 AM,59.0,57.2,94,29.84,5.0,ENE,3.5,-,0.29,Rain,Rain,70,2013-05-18 09:39:00
4:50 AM,59.0,57.2,94,29.83,5.0,ESE,3.5,-,0.32,Rain,Rain,120,2013-05-18 09:50:00
4:53 AM,59.0,57.0,93,29.83,4.0,Variable,3.5,-,0.32,Rain,Light Rain,0,2013-05-18 09:53:00
5:00 AM,59.0,55.4,88,29.83,5.0,ESE,8.1,-,0.01,Rain,Light Rain,110,2013-05-18 10:00:00
5:07 AM,59.0,55.4,88,29.83,6.0,East,6.9,-,0.01,Rain,Light Rain,90,2013-05-18 10:07:00
5:53 AM,57.9,55.9,93,29.83,8.0,SSE,9.2,-,0.01,Rain,Light Rain,150,2013-05-18 10:53:00
6:00 AM,57.2,55.4,94,29.83,7.0,SE,5.8,-,0.00,Rain,Light Rain,140,2013-05-18 11:00:00
6:14 AM,57.2,55.4,94,29.84,5.0,SE,4.6,-,0.00,Rain,Light Rain,130,2013-05-18 11:14:00
6:33 AM,57.2,55.4,94,29.84,8.0,SE,11.5,-,0.01,Rain,Light Rain,140,2013-05-18 11:33:00
6:53 AM,59.0,55.9,90,29.83,4.0,SE,13.8,-,0.02,Rain,Light Rain,140,2013-05-18 11:53:00
7:53 AM,59.0,55.9,90,29.83,6.0,SE,9.2,-,0.02,Rain,Light Rain,140,2013-05-18 12:53:00
8:53 AM,61.0,57.0,87,29.82,7.0,SE,10.4,-,0.00,,Mostly Cloudy,140,2013-05-18 13:53:00
9:36 AM,62.6,59.0,88,29.83,6.0,SSE,10.4,-,N/A,,Mostly Cloudy,160,2013-05-18 14:36:00
9:53 AM,64.0,60.1,87,29.84,6.0,South,9.2,-,N/A,,Mostly Cloudy,170,2013-05-18 14:53:00
10:53 AM,68.0,62.1,81,29.82,7.0,Variable,4.6,-,N/A,,Partly Cloudy,0,2013-05-18 15:53:00
11:53 AM,71.1,64.0,78,29.80,6.0,SSE,10.4,-,N/A,,Haze,150,2013-05-18 16:53:00
12:53 PM,73.9,64.0,71,29.77,7.0,SSE,10.4,-,N/A,,Clear,150,2013-05-18 17:53:00
1:53 PM,77.0,62.6,61,29.77,9.0,SSE,8.1,16.1,N/A,,Partly Cloudy,160,2013-05-18 18:53:00
2:53 PM,79.0,62.1,56,29.75,10.0,Variable,3.5,-,N/A,,Scattered Clouds,0,2013-05-18 19:53:00
3:53 PM,82.0,61.0,49,29.75,10.0,Variable,3.5,-,N/A,,Scattered Clouds,0,2013-05-18 20:53:00
4:53 PM,82.9,59.0,44,29.74,10.0,NW,3.5,-,N/A,,Partly Cloudy,320,2013-05-18 21:53:00
5:53 PM,82.9,59.0,44,29.74,10.0,NNW,4.6,-,N/A,,Mostly Cloudy,330,2013-05-18 22:53:00
6:53 PM,82.9,55.9,39,29.73,10.0,Calm,Calm,-,N/A,,Partly Cloudy,0,2013-05-18 23:53:00
7:53 PM,80.1,60.1,50,29.72,10.0,ENE,4.6,-,N/A,,Overcast,60,2013-05-19 00:53:00
8:53 PM,73.9,61.0,64,29.72,10.0,NE,16.1,-,N/A,,Mostly Cloudy,50,2013-05-19 01:53:00
9:53 PM,70.0,60.1,71,29.74,10.0,NNE,12.7,-,N/A,,Clear,30,2013-05-19 02:53:00
10:53 PM,66.9,59.0,76,29.74,10.0,NNE,17.3,-,N/A,,Clear,30,2013-05-19 03:53:00
11:53 PM,64.0,57.9,80,29.73,9.0,NE,13.8,-,N/A,,Mostly Cloudy,50,2013-05-19 04:53:00